Regional Weather Roundup
Issued by NWS

Home | Current Version | Previous Version | Text Only | Print | Product List | Glossary On
Versions: 1 2 3 4 5 6 7 8 9 10 11 12 13 14 15 16 17 18 19 20 21 22 23 24 25 26 27 28 29 30 31 32 33 34 35 36 37 38 39 40 41 42 43 44 45 46 47 48 49 50
006
ASUS44 KLIX 271701
RWRLA
LOUISIANA WEATHER ROUNDUP
NATIONAL WEATHER SERVICE NEW ORLEANS LA
1100 AM CST THU NOV 27 2014

NOTE: "FAIR" INDICATES FEW OR NO CLOUDS BELOW 12,000 FEET WITH NO
      SIGNIFICANT WEATHER AND/OR OBSTRUCTIONS TO VISIBILITY.
      SKY/WX - SKY CONDITION AND SIGNIFICANT WEATHER.
      TMP - AIR TEMPERATURE.    DP   - DEWPOINT TEMPERATURE.
      RH  - RELATIVE HUMIDITY.  PRES - PRESSURE.
      HX  - HEAT INDEX.         WCI  - WIND CHILL INDEX.

*  THESE STATIONS ARE NOT NWS OR FAA STATIONS AND ARE NOT UNDER
   NWS QUALITY CONTROL.

LAZ040-048-061>063-065-066-069-271800-
SOUTHEAST LOUISIANA

CITY           SKY/WX    TMP DP  RH WIND       PRES   REMARKS
N.O. AUDUBON     N/A     58  36  42 MISG        N/A
N.O. INTL ARPT MOSUNNY   55  34  45 N16       30.44F
N.O. LAKEFRONT SUNNY     57  35  43 N12       30.45F
N.O. DOWNTOWN* FAIR      55  32  41 N8G17     30.44F
SLIDELL        SUNNY     57  32  38 N12       30.42F
BATON ROUGE    SUNNY     56  30  37 N9        30.46F
BOOTHVILLE     SUNNY     56  40  55 N8        30.43F
BELLE CHASSE   SUNNY     58  32  37 N7        30.43F
BOGALUSA*        N/A     56  31  39 N10       30.45F
NEW ROADS*     NOT AVBL
GONZALES*      NOT AVBL
HAMMOND*       NOT AVBL
HOUMA*         SUNNY     61  34  36 N17       30.43F
PORT FOURCHON* SUNNY     59  36  41 N15       30.46F

$$

LAZ041-044-053-054-271800-
SOUTHWEST LOUISIANA

CITY           SKY/WX    TMP DP  RH WIND       PRES   REMARKS
LAKE CHARLES   SUNNY     59  29  31 NE14      30.47F
LAFAYETTE      SUNNY     57  32  38 NE13      30.47F
PATTERSON      SUNNY     59  34  38 N16         N/A
SALT POINT       N/A     63  34  33 N8        30.43F
NEW IBERIA     SUNNY     58  32  37 NE10G20   30.46F
CHENAULT AIRPK SUNNY     57  28  33 NE13      30.49S

$$

LAZ027-028-271800-
CENTRAL LOUISIANA

CITY           SKY/WX    TMP DP  RH WIND       PRES   REMARKS
FORT POLK      SUNNY     54  27  34 NE8       30.48F
ALEXANDRIA INT SUNNY     54  29  38 N9        30.49S
ALEXANDRIA     SUNNY     55  30  38 N10G17    30.50F

$$

LAZ001-002-271800-
NORTHWEST LOUISIANA

CITY           SKY/WX    TMP DP  RH WIND       PRES   REMARKS
SHREVEPORT     SUNNY     52  28  39 N13       30.52F
BARKSDALE AFB  SUNNY     52  27  37 NE9       30.53F
DTN SHREVEPORT SUNNY     50  26  39 N8        30.53F

$$

LAZ014-016-271800-
NORTHEAST LOUISIANA

CITY           SKY/WX    TMP DP  RH WIND       PRES   REMARKS
MONROE         SUNNY     49  30  48 N8        30.56S
TALLULAH       SUNNY     48  30  49 N9G20     30.53S

$$




USA.gov is the U.S. government's official web portal to all federal, state and local government web resources and services.